PDT,Max TemperatureF,Mean TemperatureF,Min TemperatureF,Max Dew PointF,MeanDew PointF,Min DewpointF,Max Humidity, Mean Humidity, Min Humidity, Max Sea Level PressureIn, Mean Sea Level PressureIn, Min Sea Level PressureIn, Max VisibilityMiles, Mean VisibilityMiles, Min VisibilityMiles, Max Wind SpeedMPH, Mean Wind SpeedMPH, Max Gust SpeedMPH,PrecipitationIn, CloudCover, Events, WindDirDegrees
2013-5-1,89,75,60,35,24,19,22,15,8,30.06,29.97,29.86,10,10,5,28,18,36,0.00,0,,328
2013-5-2,92,74,55,37,28,15,36,21,6,30.17,30.10,30.04,10,10,9,15,7,21,0.00,0,,322
2013-5-3,93,73,52,45,38,25,66,37,8,30.05,29.91,29.76,10,10,10,13,3,17,0.00,0,,323
2013-5-4,90,76,61,48,37,26,55,33,10,29.75,29.62,29.49,10,10,10,23,8,31,0.00,0,,309
2013-5-5,75,65,55,48,45,44,72,54,35,29.80,29.68,29.55,10,10,10,18,10,26,0.00,1,,230
2013-5-6,76,67,57,55,50,46,72,54,36,29.95,29.87,29.82,10,10,6,16,5,24,T,5,Rain,12
2013-5-7,75,66,57,54,50,47,86,62,38,30.01,29.98,29.96,10,10,10,14,3,18,0.00,7,,232
2013-5-8,74,65,55,53,50,47,86,64,41,30.10,30.06,30.01,10,10,8,15,7,21,0.03,4,Rain,201
2013-5-9,81,67,52,55,50,47,83,61,39,30.12,30.08,30.01,10,10,10,17,6,25,0.00,0,,199
2013-5-10,86,69,51,57,52,48,89,63,37,30.15,30.10,30.03,10,10,10,13,4,17,0.00,0,,188
2013-5-11,92,75,57,58,54,50,80,55,30,30.10,30.05,29.99,10,10,10,9,2,13,0.00,0,,200
2013-5-12,92,76,59,54,49,41,69,44,18,30.10,30.04,29.96,10,10,10,14,6,17,0.00,0,,188
2013-5-13,90,74,57,56,50,45,67,45,23,30.04,29.97,29.88,10,10,10,9,5,14,0.00,0,,186
2013-5-14,86,71,56,54,50,45,80,55,29,29.91,29.88,29.84,10,10,10,13,5,20,0.00,0,,203
2013-5-15,78,66,53,48,46,43,71,51,31,30.00,29.96,29.91,10,10,10,15,8,21,0.00,0,,194
2013-5-16,77,67,56,50,47,43,67,51,35,29.99,29.94,29.90,10,10,10,18,7,26,T,2,,190
2013-5-17,76,64,51,48,43,39,77,52,27,30.04,29.98,29.94,10,10,10,14,6,20,0.00,0,,193
2013-5-18,83,67,50,52,44,33,80,49,18,30.12,30.06,30.02,10,10,10,10,4,17,0.00,0,,185
2013-5-19,86,71,55,51,40,30,83,49,14,30.10,30.03,29.95,10,10,10,22,8,30,0.00,0,,322
2013-5-20,91,77,62,45,38,18,46,27,7,30.00,29.93,29.87,10,10,10,18,9,24,0.00,0,,297
2013-5-21,81,70,58,46,42,29,67,44,21,29.92,29.87,29.83,10,10,10,22,9,28,0.00,0,,202
2013-5-22,74,62,50,41,24,9,36,23,9,29.99,29.93,29.86,10,10,10,23,14,32,0.00,0,,304
2013-5-23,75,61,47,41,36,19,76,46,16,29.96,29.93,29.86,10,10,10,10,5,17,0.00,0,,208
2013-5-24,79,65,50,43,40,25,74,44,14,29.99,29.94,29.89,10,10,10,15,4,22,0.00,0,,200
2013-5-25,78,64,50,48,44,40,77,52,26,29.99,29.95,29.93,10,10,10,14,7,22,0.00,0,,195
2013-5-26,79,66,52,49,47,45,83,57,31,30.07,30.03,29.99,10,10,10,15,6,23,0.00,0,,183
2013-5-27,69,61,53,55,49,44,77,63,48,30.08,30.04,29.99,10,10,9,13,6,17,T,5,Rain,186
2013-5-28,80,69,57,55,52,45,86,58,30,29.98,29.94,29.87,10,10,10,12,6,17,0.00,4,,202
2013-5-29,82,70,58,52,49,39,67,45,22,29.92,29.88,29.84,10,10,10,15,6,22,0.02,3,Rain,198
2013-5-30,86,69,52,49,45,36,83,50,17,29.96,29.92,29.89,10,10,10,10,4,15,0.00,0,,242
2013-5-31,94,73,52,49,42,33,89,51,12,29.98,29.92,29.86,10,10,10,20,6,28,0.00,0,,308